Location: Ernez
(36.4595°N, 29.8755°E)
Time: 08:01:29
(UTC+00:00)

OAO 2 Rocket - Pass Details

Date: 13 November 2025
Orbit: 669 x 734 km, 35.0° (Epoch: 04 December)

Event Time Altitude Azimuth Distance (km) Brightness Sun altitude
Rises 16:30:03 0° 259° (W) 3,063 8.3 -19.6°
Reaches altitude 10° 16:32:26 10° 257° (WSW) 2,157 7.0 -20.0°
Maximum altitude 16:37:29 73° 173° (S) 743 3.3 -21.0°
Enters shadow 16:38:49 49° 105° (ESE) 920 3.5 -21.3°
